When you browse on this site, cookies collect data to enhance your experience and personalize the content and advertising you see.
Visit our Privacy Policy to learn more. By continuing to use the site, you agree to this use of cookies and data.
  • Em Portugal
  • Lista de países
  • Para 7 dias
  • Temperatura da água
  • Mapas de satélite
  • Mapa do tempo
  • Widgets de tempo
  • user-avatar
    Iniciar Sessão

    Previsão horária em Bolshaya Krushinovka

    Hoje, 24 Junho, Segunda-feira

    Tempo Temperatura Precipitação Vento Pressão Humidade
    00:00 +16°C° 0 mm 3 m/s 752 mmHg 95%
    01:00 +16°C° 0 mm 3 m/s 752 mmHg 95%
    02:00 +16°C° 0 mm 3 m/s 753 mmHg 95%
    03:00 +16°C° 0 mm 3 m/s 753 mmHg 95%
    04:00 +16°C° 0 mm 3 m/s 753 mmHg 95%
    05:00 +14°C° 0 mm 3 m/s 753 mmHg 94%
    06:00 +17°C° 0 mm 4 m/s 753 mmHg 88%
    07:00 +18°C° 0 mm 4 m/s 754 mmHg 81%
    08:00 +20°C° 0 mm 4 m/s 754 mmHg 74%
    09:00 +21°C° 0 mm 4 m/s 754 mmHg 70%
    10:00 +22°C° 0 mm 4 m/s 754 mmHg 65%
    11:00 +23°C° 0 mm 4 m/s 754 mmHg 61%
    12:00 +23°C° 0 mm 4 m/s 755 mmHg 59%
    13:00 +25°C° 0 mm 4 m/s 755 mmHg 58%
    14:00 +25°C° 0 mm 4 m/s 755 mmHg 57%
    15:00 +25°C° 0 mm 4 m/s 755 mmHg 59%
    16:00 +23°C° 0 mm 4 m/s 755 mmHg 61%
    17:00 +23°C° 0 mm 4 m/s 755 mmHg 63%
    18:00 +21°C° 0 mm 3 m/s 755 mmHg 69%
    19:00 +20°C° 0 mm 3 m/s 755 mmHg 75%
    20:00 +19°C° 0 mm 2 m/s 756 mmHg 81%
    21:00 +18°C° 0 mm 2 m/s 756 mmHg 84%
    22:00 +17°C° 0 mm 2 m/s 756 mmHg 86%
    23:00 +16°C° 0 mm 2 m/s 756 mmHg 89%

    Amanhã, 25 Junho, Terça-feira

    Tempo Temperatura Precipitação Vento Pressão Humidade
    00:00 +14°C° 0 mm 3 m/s 756 mmHg 88%
    01:00 +14°C° 0 mm 3 m/s 757 mmHg 87%
    02:00 +13°C° 0 mm 3 m/s 757 mmHg 86%
    03:00 +13°C° 0 mm 3 m/s 757 mmHg 85%
    04:00 +13°C° 0 mm 3 m/s 757 mmHg 84%
    05:00 +14°C° 0 mm 2 m/s 757 mmHg 84%
    06:00 +16°C° 0 mm 3 m/s 757 mmHg 79%
    07:00 +18°C° 0 mm 3 m/s 758 mmHg 74%
    08:00 +20°C° 0 mm 3 m/s 758 mmHg 69%
    09:00 +21°C° 0 mm 3 m/s 758 mmHg 64%
    10:00 +22°C° 0 mm 3 m/s 758 mmHg 59%
    11:00 +24°C° 0 mm 3 m/s 758 mmHg 54%
    12:00 +25°C° 0 mm 3 m/s 758 mmHg 53%
    13:00 +25°C° 0 mm 3 m/s 758 mmHg 52%
    14:00 +25°C° 0 mm 3 m/s 758 mmHg 51%
    15:00 +25°C° 0 mm 3 m/s 758 mmHg 53%
    16:00 +25°C° 0 mm 3 m/s 758 mmHg 56%
    17:00 +24°C° 0 mm 3 m/s 757 mmHg 59%
    18:00 +23°C° 0 mm 2 m/s 757 mmHg 65%
    19:00 +20°C° 0 mm 2 m/s 758 mmHg 71%
    20:00 +18°C° 0 mm 2 m/s 758 mmHg 77%
    21:00 +18°C° 0 mm 1 m/s 758 mmHg 79%
    22:00 +18°C° 0 mm 1 m/s 758 mmHg 80%
    23:00 +16°C° 0 mm 1 m/s 758 mmHg 81%

    Depois de amanhã, 26 Junho, Quarta-feira

    Tempo Temperatura Precipitação Vento Pressão Humidade
    00:00 +15°C° 0 mm 1 m/s 758 mmHg 82%
    01:00 +14°C° 0 mm 0 m/s 758 mmHg 83%
    02:00 +13°C° 0 mm 0 m/s 758 mmHg 84%
    03:00 +14°C° 0 mm 0 m/s 757 mmHg 84%
    04:00 +14°C° 0 mm 0 m/s 757 mmHg 84%
    05:00 +14°C° 0 mm 0 m/s 757 mmHg 83%
    06:00 +16°C° 0 mm 0 m/s 757 mmHg 78%
    07:00 +20°C° 0 mm 1 m/s 757 mmHg 73%
    08:00 +21°C° 0 mm 1 m/s 757 mmHg 67%
    09:00 +22°C° 0 mm 1 m/s 756 mmHg 63%
    10:00 +24°C° 0 mm 2 m/s 756 mmHg 59%
    11:00 +25°C° 0 mm 2 m/s 755 mmHg 55%
    12:00 +25°C° 0 mm 2 m/s 755 mmHg 54%
    13:00 +26°C° 0 mm 2 m/s 754 mmHg 53%
    14:00 +26°C° 0 mm 3 m/s 754 mmHg 52%
    15:00 +26°C° 0 mm 3 m/s 753 mmHg 55%
    16:00 +26°C° 0 mm 3 m/s 753 mmHg 57%
    17:00 +26°C° 0 mm 3 m/s 752 mmHg 60%
    18:00 +25°C° 0 mm 2 m/s 751 mmHg 66%
    19:00 +23°C° 0 mm 2 m/s 751 mmHg 72%
    20:00 +21°C° 0 mm 2 m/s 750 mmHg 79%
    21:00 +20°C° 0 mm 2 m/s 750 mmHg 81%
    22:00 +19°C° 0 mm 2 m/s 749 mmHg 83%
    23:00 +18°C° 0 mm 2 m/s 749 mmHg 85%

    27 Junho, Quinta-feira

    Tempo Temperatura Precipitação Vento Pressão Humidade
    00:00 +18°C° 0 mm 2 m/s 748 mmHg 86%
    01:00 +18°C° 0 mm 3 m/s 748 mmHg 88%
    02:00 +18°C° 0 mm 3 m/s 747 mmHg 90%
    03:00 +18°C° 0 mm 4 m/s 746 mmHg 89%
    04:00 +18°C° 0 mm 4 m/s 745 mmHg 88%
    05:00 +19°C° 0 mm 5 m/s 744 mmHg 88%
    06:00 +20°C° 1.3 mm 5 m/s 743 mmHg 88%
    07:00 +20°C° 1.3 mm 5 m/s 743 mmHg 89%
    08:00 +21°C° 1.3 mm 6 m/s 742 mmHg 90%
    09:00 +22°C° 0.2 mm 6 m/s 741 mmHg 89%
    10:00 +22°C° 0.2 mm 5 m/s 741 mmHg 88%
    11:00 +22°C° 0.2 mm 5 m/s 740 mmHg 88%
    12:00 +23°C° 0.6 mm 6 m/s 740 mmHg 83%
    13:00 +24°C° 0.6 mm 6 m/s 739 mmHg 78%
    14:00 +24°C° 0.6 mm 7 m/s 739 mmHg 73%
    15:00 +23°C° 0.7 mm 8 m/s 739 mmHg 76%
    16:00 +21°C° 0.7 mm 8 m/s 739 mmHg 80%
    17:00 +18°C° 0.7 mm 9 m/s 739 mmHg 84%
    18:00 +17°C° 0 mm 7 m/s 739 mmHg 83%
    19:00 +16°C° 0 mm 6 m/s 740 mmHg 82%
    20:00 +15°C° 0 mm 4 m/s 740 mmHg 81%
    21:00 +14°C° 0 mm 5 m/s 740 mmHg 79%
    22:00 +14°C° 0 mm 5 m/s 740 mmHg 77%
    23:00 +14°C° 0 mm 6 m/s 740 mmHg 75%

    28 Junho, Sexta-feira

    Tempo Temperatura Precipitação Vento Pressão Humidade
    00:00 +14°C° 0 mm 6 m/s 740 mmHg 73%
    01:00 +14°C° 0 mm 7 m/s 740 mmHg 71%
    02:00 +14°C° 0 mm 7 m/s 740 mmHg 70%
    03:00 +12°C° 0 mm 7 m/s 740 mmHg 73%
    04:00 +11°C° 0 mm 7 m/s 740 mmHg 76%
    05:00 +10°C° 0 mm 7 m/s 739 mmHg 79%
    06:00 +11°C° 0 mm 7 m/s 739 mmHg 77%
    07:00 +12°C° 0 mm 8 m/s 739 mmHg 74%
    08:00 +13°C° 0 mm 9 m/s 739 mmHg 72%
    09:00 +13°C° 0 mm 9 m/s 739 mmHg 71%
    10:00 +15°C° 0 mm 8 m/s 739 mmHg 70%
    11:00 +16°C° 0 mm 8 m/s 739 mmHg 69%
    12:00 +16°C° 0.2 mm 8 m/s 739 mmHg 68%
    13:00 +17°C° 0.2 mm 8 m/s 739 mmHg 66%
    14:00 +17°C° 0.2 mm 8 m/s 739 mmHg 65%
    15:00 +17°C° 0.4 mm 7 m/s 739 mmHg 69%
    16:00 +16°C° 0.4 mm 7 m/s 739 mmHg 72%
    17:00 +15°C° 0.4 mm 6 m/s 739 mmHg 75%
    18:00 +15°C° 0 mm 6 m/s 739 mmHg 74%
    19:00 +15°C° 0 mm 5 m/s 739 mmHg 73%
    20:00 +14°C° 0 mm 4 m/s 739 mmHg 72%
    21:00 +13°C° 0 mm 4 m/s 739 mmHg 71%
    22:00 +13°C° 0 mm 5 m/s 739 mmHg 70%
    23:00 +12°C° 0 mm 5 m/s 739 mmHg 69%

    29 Junho, Sábado

    Tempo Temperatura Precipitação Vento Pressão Humidade
    00:00 +12°C° 0 mm 5 m/s 739 mmHg 69%
    01:00 +10°C° 0 mm 5 m/s 739 mmHg 68%
    02:00 +10°C° 0 mm 6 m/s 739 mmHg 68%
    03:00 +10°C° 0 mm 6 m/s 739 mmHg 71%
    04:00 +9°C° 0 mm 6 m/s 739 mmHg 73%
    05:00 +9°C° 0 mm 7 m/s 739 mmHg 75%
    06:00 +9°C° 0 mm 7 m/s 739 mmHg 72%
    07:00 +10°C° 0 mm 8 m/s 739 mmHg 70%
    08:00 +10°C° 0 mm 8 m/s 739 mmHg 67%
    09:00 +10°C° 0 mm 8 m/s 739 mmHg 66%
    10:00 +10°C° 0 mm 8 m/s 739 mmHg 66%
    11:00 +10°C° 0 mm 8 m/s 739 mmHg 65%
    12:00 +11°C° 0.1 mm 8 m/s 740 mmHg 65%
    13:00 +11°C° 0.1 mm 7 m/s 740 mmHg 65%
    14:00 +12°C° 0.1 mm 7 m/s 740 mmHg 65%
    15:00 +11°C° 0 mm 6 m/s 740 mmHg 67%
    16:00 +11°C° 0 mm 6 m/s 740 mmHg 69%
    17:00 +12°C° 0 mm 5 m/s 740 mmHg 71%
    18:00 +11°C° 0 mm 6 m/s 740 mmHg 69%
    19:00 +11°C° 0 mm 7 m/s 740 mmHg 67%
    20:00 +11°C° 0 mm 8 m/s 740 mmHg 65%
    21:00 +11°C° 0 mm 8 m/s 740 mmHg 62%
    22:00 +11°C° 0 mm 7 m/s 740 mmHg 59%
    23:00 +11°C° 0 mm 7 m/s 740 mmHg 56%
    Mostrar mais